Hourly Data Report for October 16, 2003

SHERBROOKE A
QUEBEC

45°26'00.000" N
71°41'00.000" W
241.40 m
7028124
71610
YSC

Download Data

Hourly Data (October 2003)
Hourly Data Report for October 16, 2003
TIME
LST
Temp Definition
°C
Dew Point Definition
°C
Rel Hum Definition
%
Precip. Amount Definition
mm

Wind Dir Definition
10's deg

Wind Spd Definition
km/h
Visibility Definition
km
Stn Press Definition
kPa
Hmdx Definition


Wind Chill Definition


Weather Definition


00:00 4.1 2.2 87   26 30 15.0 96.86     Rain
01:00 4.4 1.7 83   25 32 15.0 97.00     Rain
02:00 4.5 0.9 77   25 33 15.0 97.14      
03:00 3.8 -2.2 65   27 30 15.0 97.30     Snow
04:00 4.4 -2.8 59   27 33 15.0 97.48      
05:00 4.0 -1.5 67   25 24 15.0 97.64      
06:00 3.7 -2.0 66   25 15 15.0 97.75      
07:00 4.1 -2.5 62   24 13 24.1 97.78     Mainly Clear
08:00 5.8 -0.8 63   25 13 24.1 97.79     Mainly Clear
09:00 7.5 -1.6 52   25 19 24.1 97.80     Mainly Clear
10:00 8.7 -2.2 46   25 32 24.1 97.81     Mostly Cloudy
11:00 8.1 -1.9 49   24 20 24.1 97.83     Mostly Cloudy
12:00 6.0 3.8 86   22 20 24.1 97.85     Rain Showers
13:00 4.7 3.2 90   29 13 16.1 97.90     Moderate Rain Showers,Snow Pellets
14:00 5.0 3.4 89   26 19 24.1 97.95     Rain Showers
15:00 6.2 2.3 76   26 17 19.3 98.02     Rain Showers
16:00 4.7 1.8 81   24 28 24.1 98.13     Rain Showers
17:00 4.6 1.4 80   24 19 15.0 98.23      
18:00 4.1 0.1 75   28 13 15.0 98.35      
19:00 4.2 -1.2 68   26 11 15.0 98.42      
20:00 3.8 -1.0 71   25 11 15.0 98.45     Rain
21:00 3.2 0.8 84   25 11 15.0 98.48      
22:00 2.5 1.3 92   27 13 6.4 98.52     Rain
23:00 2.3 0.7 89   25 9 15.0 98.56      

Notes on Data Quality.

Legend

  • E = Estimated
  • M = Missing
  • NA = Not Available*
  • [empty] = Indicates an unobserved value
Date modified: